Jerez De La Frontera, Spain

12:58 AM CEST on August 30, 2016 (GMT +0200)
Jerez

Weather History for LEJR - July, 2013

Change the Weather History Date:

Friday, July 19, 2013

  Actual Average Record
Temperature  
Mean Temperature 76 °F -  
Max Temperature 92 °F 88 °F 104 °F (1996)
Min Temperature 61 °F 63 °F 59 °F (2000)
Cooling Degree Days 12    
Growing Degree Days 26 (Base 50)    
Moisture  
Dew Point 64 °F    
Average Humidity 63    
Maximum Humidity 94    
Minimum Humidity 23    
Precipitation  
Precipitation 0.00 in 0.01 in - ()
Sea Level Pressure  
Sea Level Pressure 29.94 in    
Wind  
Wind Speed 3 mph ()    
Max Wind Speed 12 mph    
Max Gust Speed -    
Visibility 14.0 miles    
Events      
Averages and records for this station are not official NWS values.
T = Trace of Precipitation, MM = Missing Value Source: Averaged Metar Reports

Daily Weather History Graph

Daily Weather History Graph

Search for Another Location

Airport or City:

Trip Planner

Search our weather history database for the weather conditions in past years. The results will help you decide how hot, cold, wet, or windy it might be!

Date:

Astronomy

Jul. 19, 2013 Rise Set
Actual Time 7:19 AM CEST 9:40 PM CEST
Civil Twilight 6:50 AM CEST 10:10 PM CEST
Nautical Twilight 6:13 AM CEST 10:46 PM CEST
Astronomical Twilight 5:33 AM CEST 11:26 PM CEST
Moon 6:28 PM CEST (7/19) 3:47 AM CEST (7/19)
Length of Visible Light 15h 19m
Length of Day
14h 20m
Waxing Gibbous, 84% of the Moon is Illuminated
Jul 19
Waxing Gibbous
Jul 22
Full
Jul 29
Last Quarter
Aug 6
New
Aug 14
First Quarter

Hourly Weather History & Observations

Time (CEST) Temp. Heat Index Dew Point Humidity Pressure Visibility Wind Dir Wind Speed Gust Speed Precip Events Conditions
2:00 AM 67 °F - 63 °F 82% 30.01 in 16 mi Calm Calm - -  
5:00 AM 64.4 °F - 60.8 °F 88% 29.95 in - Variable 1.2 mph - N/A   Clear
5:30 AM 64.4 °F - 60.8 °F 88% 29.98 in - Variable 2.3 mph - N/A   Clear
6:00 AM 62.6 °F - 60.8 °F 94% 29.95 in - Variable 1.2 mph - N/A   Clear
6:30 AM 62.6 °F - 60.8 °F 94% 29.95 in - Calm Calm - N/A   Clear
7:00 AM 62.6 °F - 60.8 °F 94% 29.95 in - Calm Calm - N/A   Clear
7:30 AM 62.6 °F - 60.8 °F 94% 29.95 in - Calm Calm - N/A   Clear
8:00 AM 64 °F - 60 °F 84% 29.97 in 16 mi Calm Calm - -  
8:00 AM 64.4 °F - 60.8 °F 88% 29.95 in - Calm Calm - N/A   Clear
8:30 AM 66.2 °F - 62.6 °F 88% 29.95 in - Calm Calm - N/A   Clear
9:00 AM 69.8 °F - 62.6 °F 78% 29.98 in - Calm Calm - N/A   Clear
9:30 AM 73.4 °F - 64.4 °F 73% 29.98 in - SE 4.6 mph - N/A   Clear
10:00 AM 77.0 °F - 66.2 °F 69% 29.98 in - SSE 4.6 mph - N/A   Clear
10:30 AM 78.8 °F - 66.2 °F 65% 29.98 in - SSE 5.8 mph - N/A   Clear
11:00 AM 80.6 °F 82.3 °F 64.4 °F 58% 29.98 in - SSE 4.6 mph - N/A   Clear
11:30 AM 82.4 °F 83.9 °F 64.4 °F 54% 29.98 in - SE 3.5 mph - N/A   Clear
12:00 PM 84.2 °F 85.0 °F 62.6 °F 48% 29.98 in - Variable 2.3 mph - N/A   Clear
12:30 PM 86.0 °F 86.1 °F 60.8 °F 43% 29.98 in - Variable 2.3 mph - N/A   Clear
1:00 PM 86.0 °F 86.1 °F 60.8 °F 43% 29.95 in - Variable 2.3 mph - N/A   Clear
1:30 PM 87.8 °F 87.1 °F 59.0 °F 38% 29.95 in - Variable 3.5 mph - N/A   Clear
2:00 PM 92 °F - 58 °F 23% 29.95 in 12 mi SE 4.6 mph - -  
2:00 PM 91.4 °F 90.7 °F 59.0 °F 34% 29.95 in - ESE 3.5 mph - N/A   Clear
2:30 PM 89.6 °F 91.1 °F 64.4 °F 43% 29.95 in - Variable 5.8 mph - N/A   Clear
3:00 PM 87.8 °F 89.4 °F 64.4 °F 46% 29.92 in - Variable 5.8 mph - N/A   Clear
3:30 PM 89.6 °F 91.1 °F 64.4 °F 43% 29.92 in - SW 4.6 mph - N/A   Clear
4:00 PM 89.6 °F 92.2 °F 66.2 °F 46% 29.92 in - SSW 8.1 mph - N/A   Clear
4:30 PM 89.6 °F 92.2 °F 66.2 °F 46% 29.92 in - SW 9.2 mph - N/A   Clear
5:00 PM 87.8 °F 90.4 °F 66.2 °F 49% 29.89 in - WSW 10.4 mph - N/A   Clear
5:30 PM 86.0 °F 88.2 °F 66.2 °F 51% 29.89 in - WSW 11.5 mph - N/A   Clear
6:00 PM 86.0 °F 88.2 °F 66.2 °F 51% 29.89 in - WSW 10.4 mph - N/A   Clear
6:30 PM 86.0 °F 88.2 °F 66.2 °F 51% 29.89 in - SW 10.4 mph - N/A   Clear
7:00 PM 84.2 °F 86.6 °F 66.2 °F 55% 29.89 in - SW 9.2 mph - N/A   Clear
7:30 PM 84.2 °F 86.6 °F 66.2 °F 55% 29.89 in - SW 11.5 mph - N/A   Clear
8:00 PM 84 °F - 65 °F 43% 29.90 in 12 mi SW 8.1 mph - -  
8:00 PM 82.4 °F 84.6 °F 66.2 °F 58% 29.89 in - WSW 8.1 mph - N/A   Clear
8:30 PM 80.6 °F 82.7 °F 66.2 °F 61% 29.89 in - WSW 9.2 mph - N/A   Clear
9:00 PM 78.8 °F - 66.2 °F 65% 29.89 in - WSW 9.2 mph - N/A   Clear
9:30 PM 77.0 °F - 66.2 °F 69% 29.92 in - WSW 8.1 mph - N/A   Clear
10:00 PM 77.0 °F - 66.2 °F 69% 29.92 in - West 6.9 mph - N/A   Clear
10:30 PM 75.2 °F - 66.2 °F 73% 29.92 in - West 4.6 mph - N/A   Clear
11:00 PM 75.2 °F - 66.2 °F 73% 29.95 in - Variable 2.3 mph - N/A   Clear